Snowfall_Accumulation
1.7 3.7 5.6 2.4 1.6 1.9 2.0 2.6 2.7 1.4 0.3 0.7 1.1 0.7 0.1 0.1 0.1 0.2 0.1 0.0 0.1 0.0 0.0 0.0 0.0 0.0 0.0 0.0 0.0 0.0 0.0 0.0 0.0 0.0 0.0 0.0 0.0 0.0 0.0 0.0 0.0 0.0 0.0 0.0
4.4 5.3 1.3 0.6 1.2 2.0 2.8 3.4 2.9 1.2 0.4 1.2 1.4 0.8 0.2 0.1 0.2 0.1 0.1 0.1 0.1 0.1 0.0 0.0 0.0 0.0 0.0 0.0 0.0 0.0 0.0 0.0 0.0 0.0 0.0 0.0 0.0 0.0 0.0 0.0 0.0 0.0 0.0 0.0
5.9 2.9 0.5 1.7 2.7 3.2 2.9 3.1 2.5 2.4 1.1 0.8 1.9 1.5 0.5 0.1 0.0 0.1 0.1 0.0 0.0 0.1 0.1 0.0 0.0 0.0 0.0 0.0 0.0 0.0 0.0 0.0 0.0 0.0 0.0 0.0 0.0 0.0 0.0 0.0 0.0 0.0 0.0 0.0
3.9 1.4 0.8 3.0 3.6 3.2 4.0 1.0 1.4 2.3 3.8 4.0 3.2 5.1 1.3 0.7 0.4 0.1 0.1 0.1 0.1 0.0 0.0 0.0 0.0 0.0 0.0 0.0 0.0 0.0 0.0 0.0 0.0 0.0 0.0 0.0 0.0 0.0 0.0 0.0 0.0 0.0 0.0 0.0
5.1 1.8 1.8 3.3 2.5 2.2 2.4 0.6 1.2 2.3 4.8 6.1 3.4 5.9 2.2 1.1 0.9 0.7 0.6 0.2 0.2 0.1 0.1 0.0 0.0 0.0 0.0 0.0 0.0 0.0 0.0 0.0 0.0 0.0 0.0 0.0 0.0 0.0 0.0 0.0 0.0 0.0 0.0 0.0
2.9 1.3 2.2 2.2 0.8 0.9 1.2 1.3 1.6 3.1 6.0 13.7 4.4 4.9 3.2 2.0 2.7 1.8 1.0 0.3 0.3 0.1 0.1 0.1 0.1 0.0 0.0 0.0 0.0 0.0 0.0 0.0 0.0 0.0 0.0 0.0 0.1 0.1 0.0 0.0 0.0 0.0 0.0 0.0
6.2 2.8 1.6 1.0 3.0 2.3 4.2 11.0 21.2 22.2 21.6 11.8 1.9 3.2 3.2 2.0 1.9 2.0 1.5 0.6 0.3 0.2 0.1 0.1 0.2 0.2 0.1 0.1 0.0 0.0 0.0 0.0 0.0 0.0 0.0 0.0 0.0 0.0 0.0 0.1 0.1 0.0 0.1 0.0
8.4 6.9 2.7 1.8 3.1 5.0 5.5 9.1 16.5 15.5 10.5 4.7 2.1 2.7 2.6 1.9 1.8 1.5 1.4 0.8 0.3 0.2 0.2 0.1 0.2 0.2 0.2 0.1 0.1 0.1 0.0 0.0 0.0 0.0 0.0 0.0 0.0 0.0 0.0 0.0 0.0 0.1 0.1 0.1
8.6 6.0 1.8 1.4 1.4 2.8 6.4 8.4 6.0 10.1 7.4 5.0 3.7 2.4 1.9 1.5 1.5 1.3 1.5 1.0 0.7 0.3 0.1 0.1 0.2 0.2 0.1 0.2 0.1 0.1 0.1 0.1 0.0 0.0 0.0 0.0 0.0 0.0 0.0 0.0 0.0 0.1 0.1 0.1
8.6 8.0 2.9 1.2 1.4 1.4 2.9 5.0 8.1 14.9 12.6 6.8 3.5 2.3 2.9 2.3 2.1 1.8 1.6 1.5 1.2 0.6 0.4 0.3 0.3 0.2 0.1 0.2 0.1 0.1 0.0 0.1 0.0 0.0 0.0 0.0 0.0 0.0 0.0 0.0 0.1 0.1 0.1 0.1
7.7 10.2 6.7 3.6 5.4 5.6 4.4 6.2 9.2 12.2 10.7 8.0 4.7 3.5 3.2 2.7 2.6 2.6 2.1 2.1 2.0 1.5 0.5 0.6 0.7 0.3 0.3 0.2 0.1 0.1 0.1 0.1 0.1 0.1 0.0 0.0 0.0 0.0 0.0 0.1 0.1 0.1 0.1 0.1
7.2 10.8 9.9 5.3 2.4 2.1 4.0 5.6 7.5 12.8 10.4 6.4 5.3 3.6 2.3 2.2 2.2 2.3 2.1 2.0 1.5 1.7 1.0 0.6 0.9 0.6 0.4 0.4 0.3 0.2 0.2 0.1 0.0 0.0 0.0 0.1 0.0 0.0 0.1 0.1 0.1 0.1 0.1 0.1
12.3 16.7 15.7 8.6 4.7 3.5 5.9 5.5 6.0 7.6 8.4 7.0 5.8 3.4 1.5 1.3 1.4 1.6 1.8 1.8 1.6 1.5 1.1 0.7 1.0 0.8 1.0 0.8 0.7 0.6 0.3 0.1 0.1 0.0 0.0 0.0 0.0 0.0 0.1 0.1 0.1 0.1 0.1 0.1
11.4 19.9 13.3 10.7 7.8 7.5 7.5 5.8 5.3 8.2 11.1 6.5 3.4 2.9 1.9 1.4 1.3 1.6 1.8 1.9 2.1 1.7 1.6 1.4 1.1 1.0 0.9 0.8 0.8 0.6 0.3 0.1 0.1 0.1 0.0 0.0 0.1 0.1 0.1 0.1 0.2 0.2 0.1 0.5
12.6 17.2 7.4 3.7 3.0 4.2 4.8 4.3 4.6 6.3 6.2 5.6 2.6 2.3 2.3 2.2 1.9 2.2 2.2 2.1 2.0 2.0 2.2 1.7 1.7 1.2 1.3 1.3 0.9 0.6 0.4 0.2 0.1 0.1 0.1 0.1 0.0 0.1 0.1 0.1 0.2 0.2 0.4 0.5
13.0 15.2 7.8 4.1 2.0 3.0 3.8 3.0 3.3 3.6 3.2 3.1 2.1 1.9 1.5 1.6 1.7 2.0 2.0 2.3 2.3 2.4 2.3 2.0 1.6 1.5 1.5 1.8 1.3 0.7 0.6 0.3 0.2 0.3 0.3 0.1 0.1 0.1 0.3 0.4 0.3 0.3 0.5 0.8
14.1 14.4 13.1 8.0 3.0 5.7 7.4 3.7 3.5 3.5 3.3 3.2 3.6 2.8 1.8 1.5 1.8 2.3 2.4 2.4 2.6 2.7 2.5 2.0 1.9 1.8 1.8 1.5 1.3 1.2 1.1 0.9 0.8 0.6 0.3 0.3 0.3 0.2 0.4 0.5 0.5 0.6 0.9 1.0
11.1 13.1 16.4 12.7 9.7 13.3 5.6 2.8 2.8 3.6 4.2 3.9 3.5 2.9 2.5 2.3 2.2 2.2 2.6 2.9 2.7 2.5 2.1 1.8 1.9 1.8 1.7 1.4 1.1 1.0 0.9 0.8 0.6 0.5 0.5 0.5 0.4 0.4 0.5 0.6 0.8 0.7 1.0 1.0
5.0 11.7 18.9 17.8 14.1 8.1 3.4 2.7 4.0 4.7 5.1 4.3 3.5 2.7 2.2 2.3 2.1 2.0 2.2 2.8 3.1 2.6 2.2 2.0 2.0 1.9 1.6 1.2 1.1 1.0 1.1 1.3 1.1 1.1 0.8 0.7 0.5 0.6 0.6 0.7 0.9 0.8 1.2 1.0
4.7 9.7 19.4 19.4 15.1 8.1 4.3 2.6 2.7 3.7 5.8 3.7 3.6 3.5 2.9 2.8 3.1 3.3 2.9 3.1 2.8 2.1 1.9 1.9 1.9 1.7 1.4 1.3 1.2 1.1 1.3 1.3 1.3 1.1 0.8 0.7 0.7 0.7 0.8 0.7 0.8 0.8 1.1 1.2
9.2 14.9 18.6 15.2 12.8 6.3 3.8 2.7 2.3 5.4 6.8 3.6 3.7 4.1 3.8 3.9 4.3 3.9 2.9 2.6 2.7 2.2 2.1 1.8 1.8 1.6 1.3 1.2 1.2 1.4 1.3 1.3 1.1 0.9 0.7 0.7 0.7 0.9 0.9 0.8 0.9 1.0 1.0 1.2
7.4 10.6 10.8 10.0 12.0 7.4 3.6 3.4 5.6 6.7 4.1 3.6 3.5 3.5 3.8 3.7 3.4 2.9 2.5 2.5 2.3 2.3 2.2 2.1 2.0 1.8 1.3 1.3 1.2 1.5 1.4 1.4 1.1 0.9 0.8 0.7 0.8 0.8 0.8 0.8 1.0 1.0 1.0 1.2
5.6 7.0 7.4 6.9 6.2 4.5 4.2 5.1 5.2 4.3 4.2 3.6 3.6 3.4 3.5 3.6 3.7 3.3 2.3 2.3 2.3 2.4 2.3 2.2 2.2 1.5 1.4 1.3 1.0 1.5 1.3 1.2 1.0 1.1 1.2 1.0 0.8 0.8 0.8 1.1 1.2 1.2 1.1 1.7
3.8 3.5 5.1 5.4 3.7 3.1 2.9 3.2 3.3 3.1 3.6 3.2 3.3 3.5 3.5 3.6 3.5 2.9 2.3 2.2 2.3 2.2 2.2 2.0 2.0 2.0 2.0 1.9 1.3 1.4 1.1 1.1 1.3 1.2 1.1 1.0 0.9 0.9 0.8 1.0 1.1 1.5 1.7 2.7
3.5 3.1 3.9 4.3 3.0 2.5 2.1 2.1 2.1 2.5 2.3 2.4 2.6 3.0 3.2 3.2 2.9 2.5 2.2 1.9 2.0 2.3 2.1 2.0 2.0 2.0 2.3 2.1 1.5 1.2 1.1 1.4 1.7 1.4 1.0 0.9 0.9 1.0 1.1 1.1 1.2 1.7 2.0 3.8
2.8 3.4 4.1 4.2 3.1 3.5 2.9 2.2 1.8 2.1 2.2 2.2 2.4 2.5 2.5 2.5 2.2 1.9 1.9 1.9 2.0 1.9 2.0 1.7 1.7 1.7 1.8 1.7 1.7 1.2 1.3 1.7 1.9 1.6 1.3 1.2 1.1 1.1 1.3 1.3 1.3 1.1 1.6 2.2